Orbital Elements at Epoch 2458860.5 (2020-Jan-12.0) TDB
Reference: JPL 6 (heliocentric ecliptic J2000)
Element | Value | Uncertainty (1-sigma) | Units |
e | 1.001050953595301 | 5.3976e-06 | |
a | -4754.900805890102 | 24.416 | au |
q | 4.997180097249544 | 6.8458e-06 | au |
i | 155.7224338186714 | 3.2845e-05 | deg |
node | 42.33970398524402 | 5.2035e-05 | deg |
peri | 55.9120400674155 | 0.00026189 | deg |
M | -.000569912324785361 | 4.3878e-06 | deg |
tp | 2459050.090323302305 (2020-Jul-19.59032330) | 0.001994 | TDB |
period | n/a n/a | n/a n/a | d yr |
n | 3.006020111462261E-6 | 2.3153e-08 | deg/d |
Q | n/a | n/a | au |
|
| | Orbit Determination Parameters
Additional Information
|